2017-071Q

Last updated on Wed Jan 17 2018 00:19:53 GMT+0000 (Coordinated Universal Time)

1 43051U 17071Q 18016.16888181 .00004910 00000-0 13930-3 0 9999 2 43051 51.6402 61.4811 0000802 197.4786 162.6171 15.38055075 6162

Satellite not in orbit

2017-071Q